EW3861 Weather Reports


time (UTC)temp
F
wind
direction
speed
knots
gust
knots
rain 1hr
in
rain 24hr
in
rain mn
in
humidity
%
barometer
mb
20260502163018 57 220 0.0 0.0 0.00 0.00 0.00 62 1009.9
20260502161605 56 209 0.0 0.0 0.00 0.00 0.00 66 1010.0
20260502151526 55 218 0.0 0.0 0.00 0.00 0.00 76 1010.7
20260502123131 50 305 0.0 0.0 0.00 0.00 0.00 80 1011.5
20260502121555 50 244 0.0 0.0 0.00 0.00 0.00 81 1011.3
20260502114638 48 254 0.0 0.0 0.00 0.00 0.00 84 1010.9
20260502113050 47 225 0.0 0.0 0.00 0.00 0.00 86 1010.8
20260502111511 46 229 0.0 0.0 0.00 0.00 0.00 87 1010.9
20260502110101 45 233 0.0 0.0 0.00 0.00 0.00 89 1010.8
20260502104529 45 234 0.0 0.0 0.00 0.00 0.00 89 1010.9
20260502103125 44 234 0.0 0.0 0.00 0.00 0.00 89 1010.7
20260502101611 43 128 0.0 0.0 0.00 0.00 0.00 89 1010.7
20260502080106 42 165 0.0 0.0 0.00 0.00 0.00 85 1010.3
20260502070019 43 165 0.0 0.0 0.00 0.00 0.00 84 1010.5
20260502064633 43 165 0.0 0.0 0.00 0.00 0.00 84 1010.6
20260502063111 43 165 0.0 0.0 0.00 0.00 0.00 83 1010.6
20260502061512 43 165 0.0 0.0 0.00 0.00 0.00 81 1010.6
20260502054549 43 165 0.0 0.0 0.00 0.00 0.00 79 1010.7
20260502053016 44 165 0.0 0.0 0.00 0.00 0.00 79 1010.7
20260502051608 44 165 0.0 0.0 0.00 0.00 0.00 80 1010.7
20260502050020 44 165 0.0 0.0 0.00 0.00 0.00 80 1010.7
20260502044632 44 165 0.0 0.0 0.00 0.00 0.00 78 1010.8
20260502043112 44 165 0.0 0.0 0.00 0.00 0.00 75 1010.9
20260502041512 45 165 0.0 0.0 0.00 0.00 0.00 75 1010.8
20260502040059 45 165 0.0 0.0 0.00 0.00 0.00 74 1010.8
20260502034513 45 165 0.0 0.0 0.00 0.00 0.00 75 1010.7
20260502033106 45 165 0.0 0.0 0.00 0.00 0.00 75 1010.8
20260502031523 46 165 0.0 0.0 0.00 0.00 0.00 74 1010.6
20260502030005 46 165 0.0 0.0 0.00 0.00 0.00 74 1010.6
20260502024603 46 165 0.0 0.0 0.00 0.00 0.00 72 1010.5
20260502023013 46 165 0.0 0.0 0.00 0.00 0.00 68 1010.6
20260502021608 46 165 0.0 0.0 0.00 0.00 0.00 68 1010.4
20260502020022 48 165 0.0 0.0 0.00 0.00 0.00 66 1010.3
20260502014618 49 165 0.0 0.0 0.00 0.00 0.00 64 1010.2
20260502013042 50 165 0.0 0.0 0.00 0.00 0.00 60 1010.2
20260502011505 51 165 0.0 0.0 0.00 0.00 0.00 57 1010.1
20260502010107 52 165 0.0 0.0 0.00 0.00 0.00 55 1009.9
20260502004542 54 165 0.0 0.0 0.00 0.00 0.00 54 1009.7
20260502003000 55 165 0.0 0.0 0.00 0.00 0.00 52 1009.6
20260502001555 56 165 0.0 0.0 0.00 0.00 0.00 50 1009.4
20260502000023 58 165 0.0 0.0 0.00 0.00 0.00 51 1009.0
20260501234626 59 165 0.0 0.0 0.00 0.00 0.00 43 1008.9
20260501233054 60 165 0.0 0.0 0.00 0.00 0.00 38 1008.6
20260501231512 60 165 0.0 0.0 0.00 0.00 0.00 35 1008.3
20260501230108 61 95 0.0 0.0 0.00 0.00 0.00 35 1008.2
20260501224536 62 254 0.0 0.0 0.00 0.00 0.00 34 1008.1
20260501223134 62 290 0.0 0.0 0.00 0.00 0.00 33 1008.0
20260501221553 63 296 0.0 0.0 0.00 0.00 0.00 33 1007.9
20260501220011 63 308 0.0 0.0 0.00 0.00 0.00 31 1007.8
20260501214635 64 298 0.0 0.0 0.00 0.00 0.00 31 1007.7
20260501213050 64 192 0.0 0.0 0.00 0.00 0.00 32 1007.6
20260501211505 65 261 0.0 0.0 0.00 0.00 0.00 33 1007.5
20260501210105 65 294 0.0 0.0 0.00 0.00 0.00 31 1007.5
20260501204541 65 273 0.0 0.0 0.00 0.00 0.00 31 1007.4
20260501203128 65 270 0.0 0.0 0.00 0.00 0.00 32 1007.4
20260501201546 65 302 0.0 0.0 0.00 0.00 0.00 32 1007.3
20260501200009 64 311 0.0 0.0 0.00 0.00 0.00 34 1007.3
20260501194608 63 280 0.0 0.0 0.00 0.00 0.00 37 1007.5
20260501193034 63 334 0.0 0.0 0.00 0.00 0.00 37 1007.5
20260501191634 63 306 0.0 0.0 0.00 0.00 0.00 37 1007.6
20260501190051 63 92 0.0 0.0 0.00 0.00 0.00 38 1007.8
20260501184504 62 40 0.0 0.0 0.00 0.00 0.00 41 1007.9
20260501183105 62 267 0.0 0.0 0.00 0.00 0.00 40 1007.9
20260501180011 61 307 0.0 0.0 0.00 0.00 0.00 41 1008.1
20260501174627 61 302 0.0 0.0 0.00 0.00 0.00 42 1008.3